Вернуться в каталог

STARLINK-38195

АктивенСвязьSSO
NORAD 100196·PAYLOAD·🇺🇸 United States

Запущен Aug 1, 2026 с Vandenberg Space Force Base

Loading…

Ближайшие Пролёты (ближайшие 24 часа)

TLE

СвежийSource: Space-Track

Эпоха: Sep 14, 2026, 02:13 UTC

1 A0196U 26175T   26257.09257458  .00166512  00000-0  10959-2 0  9996
2 A0196  97.2821  99.3060 0003408  55.9662 304.1927 15.75179656  8176

Отслеживайте STARLINK-38195 в реальном времени с AllMySat

Download on the App Store